Location: *
(35.8942°N, 23.3025°E)
Time: 23:34:40
(UTC+00:00)

Envisat - Pass Details

Date: 21 September 2021
Orbit: 764 x 766 km, 98.2° (Epoch: 22 October)

Event Time Altitude Azimuth Distance (km) Brightness Sun altitude
Rises 03:08:05 0° 19° (NNE) 3,236 6.7 -14.1°
Reaches altitude 10° 03:10:29 10° 25° (NNE) 2,306 6.0 -13.6°
Maximum altitude 03:15:22 47° 99° (E) 1,008 4.1 -12.6°
Drops below altitude 10° 03:20:13 10° 173° (S) 2,290 5.4 -11.7°
Sets 03:22:36 0° 179° (S) 3,212 6.1 -11.2°
